This demonstration page uses our WeatherBlox Daily Observations layout. Learn more.

Left ArrowRight Arrow

40.92501, -98.34201

Hourly Observations for May 29, 2020

Temp ( °F °C ) Dew Point ( °F °C ) Humidity (%) Winds ( mph kmh ) Pressure ( in mb ) Visibility ( mi km ) Precip ( " mm )
12:53 am 00:53 Clear 56 13.3 43 6.1 62 62 WNW 8 13 30.19 1022 10 16 0.00 0.00
1:53 am 01:53 Clear 55 12.8 44 6.7 67 67 WNW 8 13 30.18 1022 10 16 0.00 0.00
2:53 am 02:53 Clear 53 11.7 45 7.2 74 74 W 9 15 30.19 1022 10 16 0.00 0.00
3:53 am 03:53 Clear 52 11.1 45 7.2 77 77 W 7 11 30.19 1022 10 16 0.00 0.00
4:53 am 04:53 Clear 51 10.6 45 7.2 80 80 W 7 11 30.20 1023 10 16 0.00 0.00
5:53 am 05:53 Clear 51 10.6 44 6.7 77 77 W 8 13 30.21 1023 10 16 0.00 0.00
6:53 am 06:53 Sunny 54 12.2 45 7.2 72 72 WNW 3 6 30.22 1023 10 16 0.00 0.00
7:53 am 07:53 Cloudy 58 14.4 46 7.8 65 65 NW 7 11 30.24 1024 10 16 0.00 0.00
8:53 am 08:53 Mostly Cloudy 63 17.2 47 8.3 56 56 NNW 7 11 30.24 1024 10 16 0.00 0.00
9:53 am 09:53 Mostly Cloudy 65 18.3 48 8.9 54 54 N 7 11 30.25 1024 10 16 0.00 0.00
10:53 am 10:53 Mostly Cloudy 69 20.6 46 7.8 44 44 NE 6 9 30.24 1024 10 16 0.00 0.00
11:53 am 11:53 Mostly Cloudy 72 22.2 43 6.1 35 35 N 5 7 30.24 1024 10 16 0.00 0.00
12:53 pm 12:53 Partly Cloudy 73 22.8 44 6.7 35 35 ESE 6 9 30.22 1023 10 16 0.00 0.00
1:53 pm 13:53 Mostly Cloudy 74 23.3 42 5.6 32 32 VRB 3 6 30.21 1023 10 16 0.00 0.00
2:53 pm 14:53 Mostly Cloudy 76 24.4 43 6.1 31 31 VRB 5 7 30.21 1023 10 16 0.00 0.00
3:53 pm 15:53 Mostly Cloudy 75 23.9 42 5.6 31 31 ENE 5 7 30.19 1023 10 16 0.00 0.00
4:53 pm 16:53 Sunny 77 25 45 7.2 32 32 Calm 30.18 1022 10 16 0.00 0.00
5:53 pm 17:53 Mostly Cloudy 76 24.4 44 6.7 32 32 Calm 30.18 1022 10 16 0.00 0.00
6:53 pm 18:53 Sunny 76 24.4 44 6.7 32 32 Calm 30.17 1022 10 16 0.00 0.00
7:53 pm 19:53 Sunny 75 23.9 45 7.2 34 34 ENE 8 13 30.16 1021 10 16 0.00 0.00
8:53 pm 20:53 Sunny 70 21.1 50 10 49 49 ENE 7 11 30.17 1022 10 16 0.00 0.00
9:53 pm 21:53 Clear 68 20 48 8.9 49 49 E 8 13 30.19 1022 10 16 0.00 0.00
10:53 pm 22:53 Clear 65 18.3 47 8.3 52 52 E 7 11 30.20 1023 10 16 0.00 0.00
11:53 pm 23:53 Clear 62 16.7 45 7.2 54 54 E 6 9 30.20 1023 10 16 0.00 0.00

Powered by AerisWeather